W4SNA-4 Weather Reports


Display with metric or nautical units.
time (UTC)temp
F
wind
direction
speed
MPH
gust
MPH
rain 1hr
in
rain 24hr
in
rain mn
in
humidity
%
barometer
mb
20260509185818 70 0 0.0 0.0 0.00 0.00 0.00 75 1005.8
20260509185310 70 0 0.0 0.0 0.00 0.00 0.00 74 1005.9
20260509184814 70 0 0.0 0.0 0.00 0.00 0.00 74 1005.9
20260509184312 70 0 0.0 0.0 0.00 0.00 0.00 74 1005.9
20260509183812 70 0 0.0 0.0 0.00 0.00 0.00 74 1006.2
20260509183310 70 0 0.0 0.0 0.00 0.00 0.00 75 1006.2
20260509182818 69 0 0.0 0.0 0.00 0.00 0.00 76 1006.2
20260509182318 69 0 0.0 0.0 0.00 0.00 0.00 78 1006.2
20260509181815 69 0 0.0 0.0 0.00 0.00 0.00 76 1006.2
20260509181310 69 0 0.0 0.0 0.00 0.00 0.00 77 1006.2
20260509180704 69 0 0.0 0.0 0.00 0.00 0.00 78 1006.3
20260509180014 68 0 0.0 0.0 0.00 0.00 0.00 80 1006.3
20260509175515 67 0 0.0 1.0 0.00 0.00 0.00 77 1006.3
20260509175017 67 0 0.0 1.0 0.00 0.00 0.00 79 1006.5
20260509174521 67 0 0.0 0.0 0.00 0.00 0.00 80 1006.5
20260509174020 67 0 0.0 0.0 0.00 0.00 0.00 77 1006.5
20260509173515 67 0 0.0 0.0 0.00 0.00 0.00 77 1006.7
20260509173017 67 0 0.0 0.0 0.00 0.00 0.00 78 1006.7
20260509172518 67 0 0.0 0.0 0.00 0.00 0.00 77 1006.7
20260509172015 67 0 0.0 0.0 0.00 0.00 0.00 78 1006.8
20260509171519 67 0 0.0 0.0 0.00 0.00 0.00 78 1006.8
20260509171015 67 0 0.0 0.0 0.00 0.00 0.00 76 1006.8
20260509170515 67 0 0.0 0.0 0.00 0.00 0.00 76 1006.9
20260509170015 67 0 0.0 0.0 0.00 0.00 0.00 76 1006.9
20260509165515 67 0 0.0 0.0 0.00 0.00 0.00 76 1006.9
20260509165015 67 0 0.0 0.0 0.00 0.00 0.00 77 1007.1
20260509164516 67 0 0.0 0.0 0.00 0.00 0.00 76 1007.1
20260509164023 67 0 0.0 0.0 0.00 0.00 0.00 76 1007.1
20260509163515 67 0 0.0 0.0 0.00 0.00 0.00 75 1007.3
20260509163014 67 0 0.0 0.0 0.00 0.00 0.00 77 1007.3
20260509162515 67 0 0.0 0.0 0.00 0.00 0.00 75 1007.3
20260509162015 67 0 0.0 0.0 0.00 0.00 0.00 75 1007.5
20260509161516 68 0 0.0 0.0 0.00 0.00 0.00 76 1007.5
20260509161015 68 0 0.0 0.0 0.00 0.00 0.00 76 1007.5
20260509160517 68 0 0.0 0.0 0.00 0.00 0.00 76 1007.6
20260509160015 68 0 0.0 0.0 0.00 0.00 0.00 75 1007.6
20260509155306 68 0 0.0 0.0 0.00 0.00 0.00 75 1007.4
20260509154810 68 0 0.0 1.0 0.00 0.00 0.00 74 1007.4
20260509154311 68 0 0.0 1.0 0.00 0.00 0.00 75 1007.4
20260509153809 68 0 0.0 0.0 0.00 0.00 0.00 77 1007.4
20260509153314 68 0 0.0 0.0 0.00 0.00 0.00 75 1007.4
20260509152820 68 0 0.0 0.0 0.00 0.00 0.00 76 1007.4
20260509152311 68 0 0.0 0.0 0.00 0.00 0.00 78 1007.3
20260509151806 68 0 0.0 0.0 0.00 0.00 0.00 78 1007.3
20260509151307 67 0 0.0 0.0 0.00 0.00 0.00 79 1007.3
20260509150810 67 0 0.0 0.0 0.00 0.00 0.00 79 1007.4
20260509150306 67 0 0.0 0.0 0.00 0.00 0.00 81 1007.4
20260509145821 66 0 0.0 0.0 0.00 0.00 0.00 81 1007.4
20260509145306 66 0 0.0 0.0 0.00 0.00 0.00 82 1007.5
20260509144806 65 0 0.0 0.0 0.00 0.00 0.00 85 1007.5
20260509144307 64 0 0.0 0.0 0.00 0.00 0.00 84 1007.5
20260509143807 64 0 0.0 0.0 0.00 0.00 0.00 86 1007.3
20260509143306 64 0 0.0 0.0 0.00 0.00 0.00 87 1007.3
20260509142529 63 0 0.0 0.0 0.00 0.00 0.00 87 1007.4
20260509142307 63 0 0.0 0.0 0.00 0.00 0.00 87 1007.4
20260509142030 63 0 0.0 0.0 0.00 0.00 0.00 89 1007.4
20260509141806 63 0 0.0 0.0 0.00 0.00 0.00 89 1007.4
20260509141306 62 0 0.0 0.0 0.00 0.00 0.00 89 1007.4
20260509140807 62 0 0.0 0.0 0.00 0.00 0.00 91 1007.6
20260509140306 61 0 0.0 0.0 0.00 0.00 0.00 92 1007.6
20260509135821 61 0 0.0 0.0 0.00 0.00 0.00 92 1007.6
20260509135307 61 0 0.0 0.0 0.00 0.00 0.00 93 1006.7
20260509134806 60 0 0.0 0.0 0.00 0.00 0.00 92 1006.7
20260509134306 60 0 0.0 0.0 0.00 0.00 0.00 93 1006.7
20260509133807 60 0 0.0 0.0 0.00 0.00 0.00 93 1006.9
20260509133306 59 0 0.0 0.0 0.00 0.00 0.00 94 1006.9
20260509132820 59 0 0.0 0.0 0.00 0.00 0.00 94 1006.9
20260509132307 59 0 0.0 0.0 0.00 0.00 0.00 94 1007.1
20260509131806 58 0 0.0 0.0 0.00 0.00 0.00 94 1007.1
20260509131229 57 0 0.0 0.0 0.00 0.00 0.00 94 1007.1
20260509130728 57 0 0.0 0.0 0.00 0.00 0.00 95 1007.6
20260509130235 57 0 0.0 0.0 0.00 0.00 0.00 94 1007.6
20260509125725 56 0 0.0 0.0 0.00 0.00 0.00 94 1007.6
20260509125226 56 0 0.0 0.0 0.00 0.00 0.00 94 1007.6
20260509124729 56 0 0.0 0.0 0.00 0.00 0.00 94 1007.6
20260509124228 56 0 0.0 0.0 0.00 0.00 0.00 94 1007.6
20260509123726 55 0 0.0 0.0 0.00 0.00 0.00 94 1007.6
20260509123227 55 0 0.0 0.0 0.00 0.00 0.00 94 1007.6
20260509122725 55 0 0.0 0.0 0.00 0.00 0.00 94 1007.6
20260509122226 55 0 0.0 0.0 0.00 0.00 0.00 93 1007.3
20260509121726 54 0 0.0 0.0 0.00 0.00 0.00 94 1007.3
20260509121225 54 0 0.0 0.0 0.00 0.00 0.00 93 1007.3
20260509120726 54 0 0.0 0.0 0.00 0.00 0.00 93 1006.9
20260509120228 54 0 0.0 0.0 0.00 0.00 0.00 93 1006.9
20260509115725 54 0 0.0 0.0 0.00 0.00 0.00 93 1006.9
20260509115011 54 0 0.0 0.0 0.00 0.00 0.00 92 1007.1
20260509114509 54 0 0.0 0.0 0.00 0.00 0.00 91 1007.1
20260509114017 54 0 0.0 1.0 0.00 0.00 0.00 91 1007.1
20260509113509 54 0 0.0 1.0 0.00 0.00 0.00 90 1007.2
20260509113009 54 0 0.0 0.0 0.00 0.00 0.00 90 1007.2
20260509112530 54 0 0.0 0.0 0.00 0.00 0.00 90 1007.2
20260509112009 54 0 0.0 0.0 0.00 0.00 0.00 90 1007.0
20260509111516 54 0 0.0 0.0 0.00 0.00 0.00 90 1007.0
20260509111010 54 0 0.0 0.0 0.00 0.00 0.00 90 1007.0
20260509110528 54 0 0.0 0.0 0.00 0.00 0.00 89 1007.0
20260509110016 54 0 0.0 0.0 0.00 0.00 0.00 89 1007.0
20260509105517 54 0 0.0 0.0 0.00 0.00 0.00 89 1007.0
20260509105009 54 0 0.0 0.0 0.00 0.00 0.00 89 1007.0
20260509104513 54 0 0.0 0.0 0.00 0.00 0.00 89 1007.0
20260509104009 54 0 0.0 0.0 0.00 0.00 0.00 88 1007.0
20260509103518 54 0 0.0 0.0 0.00 0.00 0.00 88 1006.6
20260509103009 54 0 0.0 0.0 0.00 0.00 0.00 88 1006.6
20260509102510 54 0 0.0 0.0 0.00 0.00 0.00 88 1006.6
20260509102009 54 0 0.0 0.0 0.00 0.00 0.00 88 1006.6
20260509101509 54 0 0.0 0.0 0.00 0.00 0.00 88 1006.6
20260509101010 54 0 0.0 0.0 0.00 0.00 0.00 88 1006.6
20260509100509 54 0 0.0 0.0 0.00 0.00 0.00 88 1006.4
20260509100009 54 0 0.0 0.0 0.00 0.00 0.00 87 1006.4
20260509095515 54 0 0.0 0.0 0.00 0.00 0.00 87 1006.4
20260509095009 54 0 0.0 0.0 0.00 0.00 0.00 87 1006.4
20260509094509 54 0 0.0 0.0 0.00 0.00 0.00 86 1006.4
20260509094009 54 0 0.0 0.0 0.00 0.00 0.00 86 1006.4
20260509093520 54 0 0.0 0.0 0.00 0.00 0.00 86 1006.2
20260509093009 54 0 0.0 0.0 0.00 0.00 0.00 85 1006.2
20260509092529 54 0 0.0 0.0 0.00 0.00 0.00 85 1006.2
20260509092010 54 0 0.0 0.0 0.00 0.00 0.00 85 1006.6
20260509091509 54 0 0.0 0.0 0.00 0.00 0.00 84 1006.6
20260509091012 54 0 0.0 0.0 0.00 0.00 0.00 84 1006.6
20260509090509 55 0 0.0 0.0 0.00 0.00 0.00 84 1006.6
20260509090013 55 0 0.0 0.0 0.00 0.00 0.00 83 1006.6
20260509085516 55 0 0.0 0.0 0.00 0.00 0.00 83 1006.6
20260509085009 55 0 0.0 0.0 0.00 0.00 0.00 83 1006.6
20260509084509 55 0 0.0 0.0 0.00 0.00 0.00 82 1006.6
20260509084018 55 0 0.0 0.0 0.00 0.00 0.00 82 1006.6
20260509083510 55 0 0.0 0.0 0.00 0.00 0.00 81 1006.3
20260509083009 55 0 0.0 0.0 0.00 0.00 0.00 81 1006.3
20260509082517 55 0 0.0 0.0 0.00 0.00 0.00 80 1006.3
20260509082010 55 0 0.0 0.0 0.00 0.00 0.00 80 1006.6
20260509081519 56 0 0.0 0.0 0.00 0.00 0.00 80 1006.6
20260509081009 56 0 0.0 0.0 0.00 0.00 0.00 79 1006.6
20260509080510 56 0 0.0 0.0 0.00 0.00 0.00 79 1006.6
20260509080009 56 0 0.0 0.0 0.00 0.00 0.00 78 1006.6
20260509075509 56 0 0.0 0.0 0.00 0.00 0.00 78 1006.6
20260509075013 56 0 0.0 0.0 0.00 0.00 0.00 77 1006.9
20260509074510 57 0 0.0 0.0 0.00 0.00 0.00 77 1006.9
20260509074009 57 0 0.0 0.0 0.00 0.00 0.00 76 1006.9
20260509073517 57 0 0.0 0.0 0.00 0.00 0.00 76 1007.2
20260509073009 57 0 0.0 0.0 0.00 0.00 0.00 75 1007.2
20260509072509 57 0 0.0 0.0 0.00 0.00 0.00 75 1007.2
20260509072011 57 0 0.0 0.0 0.00 0.00 0.00 76 1007.2
20260509071516 57 0 0.0 0.0 0.00 0.00 0.00 75 1007.2
20260509071009 57 0 0.0 0.0 0.00 0.00 0.00 75 1007.2
20260509070509 57 0 0.0 0.0 0.00 0.00 0.00 75 1007.6
20260509070009 57 0 0.0 0.0 0.00 0.00 0.00 75 1007.6
20260509065509 57 0 0.0 0.0 0.00 0.00 0.00 75 1007.6
20260509065009 57 0 0.0 0.0 0.00 0.00 0.00 75 1007.7
20260509064508 57 0 0.0 0.0 0.00 0.00 0.00 75 1007.7
20260509064009 57 0 0.0 0.0 0.00 0.00 0.00 75 1007.7
20260509063509 57 0 0.0 0.0 0.00 0.00 0.00 76 1007.7
20260509063009 57 0 0.0 0.0 0.00 0.00 0.00 76 1007.7
20260509062424 58 0 0.0 0.0 0.00 0.00 0.00 76 1007.9
20260509061924 58 0 0.0 0.0 0.00 0.00 0.00 76 1007.9
20260509061428 58 0 0.0 0.0 0.00 0.00 0.00 75 1007.9
20260509060924 58 0 0.0 0.0 0.00 0.00 0.00 76 1008.2
20260509060458 58 0 0.0 0.0 0.00 0.00 0.00 76 1008.2
20260509060424 58 0 0.0 0.0 0.00 0.00 0.00 76 1008.2
20260509055925 58 0 0.0 0.0 0.00 0.00 0.00 76 1008.2
20260509055425 58 0 0.0 0.0 0.00 0.00 0.00 76 1008.3
20260509054924 58 0 0.0 0.0 0.00 0.00 0.00 76 1008.3
20260509054425 58 0 0.0 0.0 0.00 0.00 0.00 76 1008.3
20260509053924 58 0 0.0 0.0 0.00 0.00 0.00 76 1008.7
20260509053425 58 0 0.0 0.0 0.00 0.00 0.00 76 1008.7
20260509052925 58 0 0.0 0.0 0.00 0.00 0.00 76 1008.7
20260509052424 58 0 0.0 0.0 0.00 0.00 0.00 76 1008.8
20260509051924 58 0 0.0 0.0 0.00 0.00 0.00 75 1008.8
20260509051428 58 0 0.0 0.0 0.00 0.00 0.00 75 1008.8
20260509050924 58 0 0.0 0.0 0.00 0.00 0.00 75 1009.0
20260509050429 58 0 0.0 0.0 0.00 0.00 0.00 75 1009.0
20260509045925 58 0 0.0 0.0 0.00 0.00 0.00 75 1009.0
20260509045424 58 0 0.0 0.0 0.00 0.00 0.00 75 1008.9
20260509044924 58 0 0.0 0.0 0.00 0.00 0.00 74 1008.9
20260509044012 58 0 0.0 0.0 0.00 0.00 0.00 74 1008.9
20260509043524 58 0 0.0 0.0 0.00 0.00 0.00 74 1009.1
20260509043012 58 0 0.0 0.0 0.00 0.00 0.00 74 1009.1
20260509042517 58 0 0.0 0.0 0.00 0.00 0.00 73 1009.1
20260509042012 59 0 0.0 0.0 0.00 0.00 0.00 73 1009.1
20260509041517 59 0 0.0 0.0 0.00 0.00 0.00 72 1009.1
20260509041012 59 0 0.0 0.0 0.00 0.00 0.00 72 1009.1
20260509040517 59 0 0.0 0.0 0.00 0.00 0.00 72 1009.1
20260509040012 59 0 0.0 0.0 0.00 0.00 0.00 71 1009.1
20260509035512 59 0 0.0 0.0 0.00 0.00 0.00 70 1009.1
20260509035012 59 0 0.0 0.0 0.00 0.00 0.00 70 1008.9
20260509034517 59 0 0.0 0.0 0.00 0.00 0.00 69 1008.9
20260509034012 60 0 0.0 0.0 0.00 0.00 0.00 69 1008.9
20260509033536 60 0 0.0 0.0 0.00 0.00 0.00 69 1009.1
20260509033012 60 0 0.0 0.0 0.00 0.00 0.00 68 1009.1
20260509032511 60 0 0.0 0.0 0.00 0.00 0.00 68 1009.1
20260509032012 60 0 0.0 0.0 0.00 0.00 0.00 67 1009.0
20260509031512 60 0 0.0 0.0 0.00 0.00 0.00 68 1009.0
20260509031011 60 0 0.0 0.0 0.00 0.00 0.00 68 1009.0
20260509030526 60 0 0.0 0.0 0.00 0.00 0.00 68 1009.2
20260509030012 60 0 0.0 0.0 0.00 0.00 0.00 68 1009.2
20260509025511 60 0 0.0 0.0 0.00 0.00 0.00 67 1009.2
20260509025012 61 0 0.0 0.0 0.00 0.00 0.00 67 1009.4
20260509024512 61 0 0.0 0.0 0.00 0.00 0.00 66 1009.4
20260509024011 61 0 0.0 0.0 0.00 0.00 0.00 67 1009.4
20260509023524 61 0 0.0 0.0 0.00 0.00 0.00 66 1009.5
20260509023012 61 0 0.0 0.0 0.00 0.00 0.00 66 1009.5
20260509022511 61 0 0.0 0.0 0.00 0.00 0.00 65 1009.5
20260509022012 61 0 0.0 0.0 0.00 0.00 0.00 64 1009.4
20260509021515 61 0 0.0 1.0 0.00 0.00 0.00 64 1009.4
20260509021012 61 0 0.0 1.0 0.00 0.00 0.00 64 1009.4
20260509020512 61 0 0.0 1.0 0.00 0.00 0.00 63 1009.5
20260509020011 61 0 0.0 0.0 0.00 0.00 0.00 62 1009.5
20260509015516 61 0 0.0 0.0 0.00 0.00 0.00 62 1009.5
20260509015012 61 0 0.0 0.0 0.00 0.00 0.00 61 1009.5
20260509014511 62 0 0.0 0.0 0.00 0.00 0.00 61 1009.5
20260509014012 62 0 0.0 0.0 0.00 0.00 0.00 61 1009.5
20260509013512 62 0 0.0 0.0 0.00 0.00 0.00 60 1009.3
20260509013011 62 0 0.0 0.0 0.00 0.00 0.00 59 1009.3
20260509012517 62 0 0.0 0.0 0.00 0.00 0.00 59 1009.3
20260509012012 62 0 0.0 1.0 0.00 0.00 0.00 60 1009.4
20260509011514 62 0 0.0 1.0 0.00 0.00 0.00 59 1009.4
20260509011012 62 0 0.0 1.0 0.00 0.00 0.00 59 1009.4
20260509010514 62 0 0.0 1.0 0.00 0.00 0.00 58 1009.2
20260509010012 62 0 0.0 1.0 0.00 0.00 0.00 58 1009.2
20260509005517 63 0 0.0 1.0 0.00 0.00 0.00 57 1009.2
20260509005011 63 0 0.0 1.0 0.00 0.00 0.00 57 1008.9
20260509004517 63 0 0.0 0.0 0.00 0.00 0.00 56 1008.9
20260509004012 63 0 0.0 0.0 0.00 0.00 0.00 56 1008.9
20260509003511 63 0 0.0 0.0 0.00 0.00 0.00 56 1009.2
20260509003012 63 0 0.0 0.0 0.00 0.00 0.00 56 1009.2
20260509002512 63 0 0.0 0.0 0.00 0.00 0.00 55 1009.2
20260509002011 63 0 0.0 0.0 0.00 0.00 0.00 55 1008.9
20260509001512 64 0 0.0 0.0 0.00 0.00 0.00 55 1008.9
20260509001011 64 0 0.0 0.0 0.00 0.00 0.00 54 1008.9
20260509000511 64 0 0.0 0.0 0.00 0.00 0.00 54 1008.8
20260509000055 64 0 0.0 0.0 0.00 0.00 0.00 53 1008.8
20260509000012 64 0 0.0 0.0 0.00 0.00 0.00 53 1008.8
20260508235511 64 0 0.0 0.0 0.00 0.00 0.00 52 1008.8
20260508235011 64 0 0.0 0.0 0.00 0.00 0.00 52 1008.8
20260508234512 65 0 0.0 0.0 0.00 0.00 0.00 51 1008.8
20260508234044 65 0 0.0 0.0 0.00 0.00 0.00 51 1008.8
20260508234011 65 0 0.0 0.0 0.00 0.00 0.00 51 1008.8
20260508233512 65 0 0.0 0.0 0.00 0.00 0.00 50 1008.6
20260508233012 65 0 0.0 0.0 0.00 0.00 0.00 50 1008.6
20260508232511 65 0 0.0 0.0 0.00 0.00 0.00 50 1008.6
20260508232019 65 0 0.0 0.0 0.00 0.00 0.00 49 1008.9
20260508231556 65 0 0.0 0.0 0.00 0.00 0.00 50 1008.9
20260508231512 65 0 0.0 0.0 0.00 0.00 0.00 50 1008.9
20260508230511 66 0 0.0 0.0 0.00 0.00 0.00 47 1008.9
20260508230011 66 0 0.0 0.0 0.00 0.00 0.00 48 1008.9
20260508225511 66 0 0.0 0.0 0.00 0.00 0.00 49 1008.9
20260508225011 66 0 0.0 0.0 0.00 0.00 0.00 49 1008.9
20260508224511 66 0 0.0 0.0 0.00 0.00 0.00 49 1008.9
20260508224011 67 0 0.0 0.0 0.00 0.00 0.00 47 1008.9
20260508223511 67 0 0.0 0.0 0.00 0.00 0.00 46 1008.9
20260508223011 67 0 0.0 0.0 0.00 0.00 0.00 46 1008.9
20260508222511 67 0 0.0 0.0 0.00 0.00 0.00 44 1008.9
20260508222011 67 0 0.0 0.0 0.00 0.00 0.00 47 1008.9
20260508221511 66 0 0.0 0.0 0.00 0.00 0.00 44 1008.9
20260508221011 66 0 0.0 0.0 0.00 0.00 0.00 46 1008.9
20260508220511 66 0 0.0 0.0 0.00 0.00 0.00 47 1008.8
20260508220011 67 0 0.0 0.0 0.00 0.01 0.00 50 1008.8
20260508215511 67 0 0.0 0.0 0.00 0.01 0.00 52 1008.8
20260508215011 67 0 0.0 0.0 0.00 0.01 0.00 45 1008.8
20260508214516 67 0 0.0 0.0 0.00 0.03 0.00 41 1008.8
20260508214011 67 0 0.0 0.0 0.00 0.04 0.00 43 1008.8
20260508213510 67 0 0.0 0.0 0.00 0.04 0.00 41 1009.0
20260508213011 67 0 0.0 0.0 0.00 0.04 0.00 39 1009.0
20260508212511 67 0 0.0 0.0 0.00 0.04 0.00 40 1009.0
20260508212010 67 0 0.0 0.0 0.00 0.04 0.00 43 1009.1
20260508211511 68 0 0.0 0.0 0.00 0.04 0.00 45 1009.1
20260508211011 68 0 0.0 0.0 0.00 0.04 0.00 55 1009.1
20260508210512 68 0 0.0 0.0 0.00 0.04 0.00 52 1009.0
20260508210013 68 0 0.0 0.0 0.00 0.04 0.00 45 1009.0
20260508205511 68 0 0.0 0.0 0.00 0.04 0.00 48 1009.0
20260508205010 68 0 0.0 0.0 0.00 0.04 0.00 44 1009.0
20260508204511 68 0 0.0 0.0 0.00 0.04 0.00 41 1009.0
20260508204011 68 0 0.0 0.0 0.00 0.04 0.00 42 1009.0
20260508203511 68 0 0.0 0.0 0.00 0.05 0.00 41 1009.5
20260508203014 68 0 0.0 0.0 0.00 0.07 0.00 46 1009.5
20260508202511 68 0 0.0 0.0 0.00 0.10 0.00 47 1009.5
20260508202011 68 0 0.0 0.0 0.00 0.18 0.00 50 1009.5
20260508201520 68 0 0.0 0.0 0.00 0.18 0.00 39 1009.5
20260508201011 68 0 0.0 0.0 0.00 0.18 0.00 36 1009.5
20260508200511 68 0 0.0 0.0 0.00 0.18 0.00 38 1010.0
20260508200011 68 0 0.0 0.0 0.00 0.18 0.00 41 1010.0
20260508195513 68 0 0.0 0.0 0.00 0.18 0.00 36 1010.0
20260508195011 68 0 0.0 0.0 0.00 0.18 0.00 38 1010.1
20260508194511 68 0 0.0 0.0 0.00 0.18 0.00 44 1010.1
20260508194011 67 0 0.0 1.0 0.00 0.18 0.00 39 1010.1
20260508193510 67 0 0.0 1.0 0.00 0.18 0.00 36 1010.2
20260508193011 68 0 0.0 1.0 0.00 0.18 0.00 36 1010.2
20260508192511 68 0 0.0 0.0 0.00 0.18 0.00 40 1010.2
20260508192010 68 0 0.0 0.0 0.00 0.18 0.00 38 1010.3
20260508191511 68 0 0.0 0.0 0.00 0.18 0.00 38 1010.3
20260508190510 68 0 0.0 0.0 0.00 0.18 0.00 37 1010.7
20260508190010 68 0 0.0 0.0 0.00 0.18 0.00 40 1010.7